Location: Inowrocław
(52.7931°N, 18.2613°E)
Time: 13:10:14
(UTC+01:00)

ISS - Visible Passes

Search period start: 21 November 2017 00:00
Search period end: 01 December 2017 00:00
Orbit: 402 x 407 km, 51.6° (Epoch: 21 November)

Date Brightness Start Highest point End Pass type
(mag) Time Alt. Az. Time Alt. Az. Time Alt. Az.
28 Nov -1.0 18:17:29 10° SSW 18:17:53 12° S 18:17:53 12° S visible
29 Nov -1.5 17:26:09 10° S 17:27:48 13° SE 17:27:48 13° SE visible
30 Nov -2.0 18:08:28 10° SW 18:10:17 24° SSW 18:10:17 24° SSW visible
